Flag for Dominican Republic Weather past 2 weeks in Santiago de los Caballeros, Dominican Republic

Now
75 °F

Fog.


Feels Like: 73 °F
Forecast: 74 / 91 °F
Wind: 5 mph from Southeast

Location: Santiago

Current Time: Sep 17, 2014 at 8:21:36 AM

Latest Report: Sep 17, 2014 at 8:00 AM


Visibility: 3 mi

Pressure: 29.98 "Hg

Humidity: 100%

Dew point: 75 °F

Location of Santiago de los CaballerosLocation

Historic Weather in Santiago de los Caballeros — Graph

°F

Santiago de los Caballeros temperature yesterday

Maximum temperature yesterday: 91 °F (at 2:00 PM)
Minimum temperature yesterday: 73 °F (at 5:00 AM)
Average temperature yesterday: 80 °F

Past Weeks' High & Low Weather Summary

 TemperatureHumidityPressure
High91 °F (Sep 2, 3:00 PM)100% (Sep 2, 7:00 AM)30.09 "Hg (Sep 2, 7:00 AM)
Low70 °F (Sep 6, 5:00 PM)46% (Sep 13, 4:00 PM)29.89 "Hg (Sep 2, 4:00 PM)
Average79 °F83%29.98 "Hg
* Reported Sep 2 7:00 AM — Sep 17 7:00 AM, Santiago de los Caballeros, Weather by CustomWeather, © 2014

Note: Actual official high and low records may vary slightly from our data, if they occured in-between our weather recording intervals... More about our weather records

Advertising

Santiago de los Caballeros weather history for previous 24 hours

 ConditionsComfort  
Time TempWeatherWind HumidityBarometerVisibility
7:00 AM
Sep 17
75 °FFog.No wind100%29.95 "Hg3 mi
6:00 AM75 °FPartly cloudy.3 mph100%29.92 "HgN/A
5:00 AM75 °FPartly cloudy.5 mph100%29.92 "HgN/A
4:00 AM75 °FPartly cloudy.No wind100%29.95 "HgN/A
3:00 AM75 °FThundershowers. Partly cloudy.No wind100%29.95 "HgN/A
2:00 AM75 °FMostly cloudy.7 mph100%29.95 "HgN/A
1:00 AM75 °FMostly cloudy.5 mph100%29.98 "HgN/A
12:00 AM77 °FLight rain. Mostly cloudy.6 mph94%29.98 "Hg5 mi
11:00 PM
Sep 16
77 °FRain. Mostly cloudy.7 mph94%29.98 "Hg4 mi
10:00 PM77 °FLight rain. Partly cloudy.6 mph94%29.98 "Hg5 mi
9:00 PM77 °FLight rain. Mostly cloudy.12 mph94%29.95 "Hg5 mi
8:00 PM77 °FThunderstorms. Mostly cloudy.7 mph94%29.95 "Hg4 mi
7:00 PM77 °FThunderstorms. Partly cloudy.6 mph89%29.95 "Hg4 mi
6:00 PM82 °FThunderstorms. Cloudy.9 mph74%29.92 "Hg4 mi
5:00 PM82 °FRain. Broken clouds.7 mph74%29.89 "Hg6 mi
4:00 PM84 °FThunderstorms. Broken clouds.13 mph70%29.89 "HgN/A
3:00 PM91 °FRain. Scattered clouds.12 mph52%29.89 "Hg5 mi
2:00 PM91 °FScattered clouds.13 mph52%29.92 "HgN/A
1:00 PM90 °FScattered clouds.7 mph59%29.95 "HgN/A
12:00 PM88 °FScattered clouds.10 mph62%29.98 "HgN/A
11:00 AM86 °FScattered clouds.12 mph66%30.01 "HgN/A
10:00 AM84 °FScattered clouds.7 mph74%30.01 "HgN/A
9:00 AM79 °FScattered clouds.5 mph89%30.01 "HgN/A
8:00 AM75 °FScattered clouds.No wind100%30.01 "HgN/A
Weather by CustomWeather, © 2014

See weather overviewHow to use our weather pages